SCP
0 0 0 0 0 0 0 0 0 0 0 -0 -0 -0 -0 0 0 0 0 0 0 0 0 0 0 0 0 0 0 0 0 0 0 0 0 0 0 0 0 0 0 0 0
0 0 0 0 0 0 0 0 0 0 0 0 -0 -0 0 0 0 0 0 0 0 0 0 0 0 0 0 0 0 0 0 0 1 1 0 0 0 0 0 0 0 0 0
0 0 0 -0 -0 0 0 0 0 0 0 0 0 0 0 0 0 0 0 0 0 0 0 0 0 0 0 0 0 0 0 0 0 1 1 0 0 0 0 0 0 0 0
0 0 0 0 0 0 0 0 0 0 0 0 0 0 0 0 0 0 0 0 0 0 0 0 0 0 0 0 0 0 0 0 0 0 1 0 0 0 0 0 0 0 0
0 0 0 -0 -0 -0 0 0 0 0 0 0 0 0 0 0 0 0 0 0 0 0 0 0 0 0 0 0 0 0 0 0 0 0 1 1 0 0 0 0 0 0 0
0 0 0 0 0 0 0 0 0 0 0 0 0 0 0 0 0 0 0 0 0 0 0 0 0 0 0 0 0 0 0 0 0 0 0 0 1 0 0 0 0 0 0
0 0 0 0 0 0 0 0 0 0 0 0 0 0 0 0 0 0 0 0 0 0 0 0 0 0 0 0 0 0 0 0 0 0 0 0 0 0 0 0 0 0 0
0 0 0 0 0 0 0 0 0 0 0 0 0 0 0 0 0 0 0 0 0 0 0 0 0 0 0 0 0 0 0 0 0 0 0 0 0 0 0 0 0 0 0
0 0 0 0 0 0 0 0 0 0 0 0 0 0 0 0 0 0 0 0 0 0 -0 0 -0 -0 0 0 0 0 0 0 0 0 0 0 0 0 0 0 0 0 0
0 0 0 0 0 0 0 0 0 0 0 0 0 0 0 0 0 0 0 0 0 -0 -0 -0 -0 0 0 0 0 0 0 0 0 0 0 0 -0 0 0 0 0 0 0
0 -0 0 0 0 0 0 0 0 0 0 0 0 0 0 0 0 0 0 -0 -0 -0 0 -0 -0 -0 0 0 0 0 0 0 0 0 0 0 0 0 0 0 0 0 0
0 0 0 0 0 0 0 0 0 0 0 0 0 -0 0 0 0 0 -0 -0 0 0 -0 -0 -0 -0 -0 -0 0 0 0 0 -0 0 -0 0 0 0 0 0 0 0 0
0 0 0 0 0 0 0 0 0 0 0 0 0 -0 -0 -0 0 0 0 0 0 -0 -0 -0 -0 0 -0 -0 0 0 0 -0 -0 -0 0 0 0 0 0 0 0 0 0
0 0 -0 0 0 0 0 0 0 0 0 0 0 -0 -0 -0 0 0 0 -0 -0 0 0 0 -0 0 -0 -0 -0 0 0 0 0 0 0 0 0 0 0 0 0 0 0
-0 0 -0 -0 0 0 0 0 0 0 0 0 -0 0 0 0 0 0 -0 0 -0 0 0 0 -0 0 -0 -0 -0 0 0 0 0 0 0 0 0 0 0 0 0 0 0
0 0 0 0 0 0 -0 0 0 0 0 -0 0 0 0 0 0 0 0 0 0 0 -0 -0 -0 -0 0 -0 0 0 0 0 0 0 0 0 0 0 -0 -0 -0 0 0
0 0 0 0 0 0 -0 -0 -0 -0 -0 0 -0 -0 -0 -0 -0 0 -0 -0 0 -0 -0 -0 -0 -0 0 0 0 0 0 0 0 0 0 0 0 -0 -0 -0 -0 0 -0
0 0 0 0 0 -0 -0 -0 0 -0 -0 -0 -0 -0 -0 0 0 0 0 0 0 -0 -0 -0 -0 -0 0 0 0 0 0 0 0 -0 -0 -0 0 0 -0 -0 -0 -0 -0
0 0 0 0 -0 -0 -0 -0 -0 -0 -0 -0 -0 0 0 0 0 0 0 0 0 0 0 0 0 0 0 0 -0 0 0 0 0 0 0 -0 0 -0 -0 -0 -0 -0 -0
0 0 0 0 0 0 0 -0 -0 -0 -0 0 0 0 0 0 0 0 0 0 0 0 0 0 0 0 0 0 -0 0 0 -0 0 0 0 -0 -0 -0 -0 -0 -0 -0 -0
0 0 0 0 0 0 0 -0 -0 0 0 0 0 0 0 0 0 0 0 0 0 0 0 0 0 0 0 0 0 -0 0 0 0 0 0 0 -0 -0 -0 -0 -0 -0 -0
0 0 0 0 0 0 -0 -0 0 0 0 0 0 0 0 0 0 0 0 0 0 0 0 0 0 0 0 0 0 -0 -0 -0 0 0 0 0 -0 -0 -0 -0 -0 -0 -0
0 0 0 0 0 -0 -0 0 0 0 0 0 0 0 0 0 0 0 0 0 0 0 0 0 0 0 0 0 0 0 -0 0 0 0 -0 -0 -0 -0 -0 -0 -0 -0 -0
0 0 -0 -0 -0 -0 0 0 0 0 0 0 0 0 0 0 0 0 0 0 0 0 0 0 0 0 0 0 0 0 0 -0 0 -0 0 0 -0 -0 -0 -0 0 0 0
0 0 -0 0 -0 0 0 0 0 0 0 0 0 0 0 0 0 0 0 0 0 0 0 0 0 0 0 0 0 0 0 0 0 0 -0 0 0 0 -0 -0 0 0 0
0 -0 -0 0 0 0 0 0 0 0 0 0 0 0 0 0 0 0 0 0 0 0 0 0 0 0 0 0 0 0 0 -0 0 0 0 -0 0 0 0 0 0 0 0
Wind_Speed_500mb
35 38 42 47 46 45 49 56 60 50 57 62 69 65 57 52 47 45 48 49 49 50 51 54 58 58 56 48 45 42 38 46 41 49 57 60 57 58 62 58 57 61 60
49 54 57 56 56 55 55 57 52 43 43 52 57 61 61 59 58 57 56 54 52 51 52 48 49 51 48 49 45 40 42 45 41 43 46 48 52 56 60 67 63 64 57
51 56 59 59 61 65 58 52 40 46 52 51 59 57 61 60 64 65 68 70 64 53 53 56 54 49 46 48 50 49 41 50 49 42 40 26 28 36 43 62 55 72 58
48 46 46 51 53 45 46 47 45 54 54 55 53 53 59 72 65 66 74 74 67 59 61 64 63 53 49 50 51 48 47 45 50 48 47 57 41 26 22 37 55 56 56
37 39 43 45 46 52 57 52 55 56 59 51 48 55 65 63 67 74 75 73 67 62 69 71 67 61 63 53 48 52 56 51 48 48 49 50 55 61 40 30 43 44 63
39 43 40 42 49 51 54 55 55 55 54 52 52 57 61 64 67 68 76 75 68 65 70 74 70 72 73 57 60 58 62 61 52 48 46 52 46 41 48 37 48 56 57
52 48 42 42 46 49 58 53 53 59 60 63 66 65 65 65 65 68 71 73 70 71 70 73 72 76 82 62 56 60 64 66 63 44 50 49 55 55 54 58 40 45 39
49 53 52 52 53 58 47 50 58 65 67 63 57 58 62 60 66 72 71 67 69 70 75 72 74 79 73 56 54 52 53 53 61 61 47 51 48 49 58 67 55 39 37
74 69 67 62 61 51 50 57 63 65 65 60 63 65 68 72 73 69 66 70 71 70 75 76 82 76 64 53 46 53 59 52 54 65 57 50 57 52 54 67 76 69 42
79 83 82 77 54 51 61 70 69 67 63 61 68 76 78 71 71 68 69 73 70 75 78 74 71 75 69 55 51 58 59 58 54 56 64 61 57 54 58 64 70 69 76
63 83 78 69 64 66 68 71 70 66 66 70 82 85 79 76 75 75 76 71 78 78 76 76 73 84 69 63 62 59 56 51 55 53 55 59 54 54 62 68 71 79 75
67 83 69 76 82 82 80 78 68 73 84 82 86 87 85 82 81 81 79 77 81 82 72 72 87 72 72 67 47 59 57 54 55 55 54 59 51 54 67 68 77 84 76
76 70 72 77 82 82 83 80 81 85 86 87 85 87 84 87 85 83 82 81 86 77 78 84 70 74 64 47 57 53 50 53 52 55 49 53 49 49 54 66 78 80 84
71 70 81 83 82 83 84 82 87 85 87 88 90 87 89 84 85 77 72 70 76 90 95 84 93 61 56 66 58 42 40 48 47 52 38 44 51 67 71 78 86 85 99
76 76 87 86 88 91 82 90 87 88 88 87 87 89 85 83 70 77 90 100 98 100 100 88 63 55 55 54 44 26 36 41 47 39 40 56 68 59 70 77 82 94 103
76 89 90 91 93 86 94 92 90 94 88 88 85 85 80 80 85 81 85 86 89 86 70 64 67 58 56 41 25 26 32 29 36 51 67 76 79 77 76 79 70 67 57
89 93 90 93 93 92 95 94 98 94 87 81 80 81 84 75 75 79 82 77 75 67 70 68 61 56 31 14 10 5 30 44 70 81 75 79 74 74 75 80 80 74 71
92 94 94 91 94 94 96 97 94 84 93 89 79 80 74 74 79 71 71 67 64 56 62 53 25 27 39 27 22 31 39 59 90 86 82 92 82 72 75 76 72 72 71
93 90 86 93 95 93 95 99 87 95 84 81 80 75 71 72 65 63 63 57 44 49 41 43 1 29 57 58 61 74 93 107 110 104 99 82 73 80 79 86 93 85 75
90 91 92 91 92 99 96 90 96 89 80 78 75 66 63 59 59 56 53 55 28 36 42 70 84 87 91 82 96 104 117 111 100 92 94 93 97 98 87 87 85 83 73
93 92 91 95 96 96 107 92 88 81 72 66 62 56 51 50 51 49 51 36 24 44 65 82 90 96 99 107 108 111 109 109 106 103 94 92 89 77 70 67 65 66 63
95 94 99 99 100 101 94 91 74 63 58 53 52 49 42 42 38 44 45 37 48 66 78 88 94 97 97 94 100 107 110 103 105 103 96 84 74 71 68 67 67 65 60
92 96 97 111 109 101 91 77 58 53 50 48 42 37 35 35 40 35 41 52 56 70 78 92 99 101 97 99 100 98 101 102 105 95 88 81 79 76 75 71 67 62 63
93 102 108 105 109 101 74 54 50 42 41 36 34 33 36 39 34 25 39 52 61 63 65 84 96 97 100 100 99 100 100 101 103 93 86 83 83 79 74 69 69 70 69
99 108 103 105 102 82 63 50 44 40 39 35 28 33 34 38 36 33 35 40 44 55 78 91 94 98 97 94 94 96 100 98 94 94 90 87 83 82 80 76 70 67 65
98 110 107 107 96 79 66 56 41 37 33 25 30 34 32 36 41 41 45 42 50 71 79 81 84 87 90 91 88 88 91 90 85 89 90 89 85 82 77 73 70 64 61
Wind_Direction_500mb
25 21 10 3 358 349 347 344 329 323 326 330 333 332 334 334 335 334 331 326 318 314 307 296 290 288 291 288 287 291 280 268 263 262 256 254 250 244 245 243 239 248 240
24 12 3 356 347 341 337 328 323 316 323 328 328 322 327 329 328 332 332 328 324 320 320 319 307 295 290 287 284 285 282 275 271 261 260 258 251 245 246 243 244 240 233
11 360 348 339 337 337 336 334 324 322 328 324 322 315 315 318 324 324 326 332 323 322 320 323 319 302 286 283 283 281 281 283 270 258 247 240 236 237 240 229 240 232 229
355 350 343 339 345 352 344 340 336 330 328 316 310 311 312 309 314 315 317 321 321 322 324 323 322 318 304 288 283 282 278 275 275 269 255 244 247 208 212 227 235 230 221
354 348 341 337 339 342 347 344 341 337 333 329 319 309 318 309 309 307 313 316 318 319 320 323 321 319 319 289 278 274 276 270 272 268 262 255 250 243 240 223 217 195 201
355 346 339 334 338 338 341 340 340 336 332 328 326 323 316 313 314 309 309 311 311 312 314 318 319 318 315 298 281 271 267 269 271 260 261 257 249 234 219 215 201 199 183
347 350 342 339 336 338 334 332 332 330 329 325 318 314 315 312 311 311 313 311 309 310 309 314 313 314 315 302 289 283 272 266 262 262 256 258 252 247 233 227 218 195 195
348 343 337 338 335 335 330 332 331 328 328 326 322 319 317 316 316 312 311 311 310 308 311 309 309 311 311 302 297 288 285 274 261 249 251 257 255 252 238 233 212 179 170
348 351 345 341 338 340 342 337 333 328 325 322 323 322 316 316 316 313 312 311 309 309 307 306 307 310 309 301 293 283 286 281 267 252 245 254 255 259 249 237 216 214 159
347 338 336 339 335 334 333 330 327 324 322 320 319 317 315 315 315 313 310 311 311 310 310 311 309 311 308 299 284 279 274 277 264 260 247 239 250 254 252 235 224 217 193
332 334 335 345 343 340 336 333 327 322 322 321 319 319 318 316 314 312 311 309 312 314 313 310 305 306 302 293 285 285 277 269 255 255 250 245 248 248 233 229 206 203 187
331 328 331 336 338 338 336 329 326 320 319 318 316 316 316 316 314 313 311 309 309 312 309 306 304 302 296 288 279 287 274 258 255 252 256 250 243 239 220 200 198 198 189
335 331 331 333 334 331 329 327 322 320 319 317 316 315 314 314 315 312 311 310 309 307 307 310 306 305 303 275 288 276 261 254 248 255 245 237 238 215 203 205 197 188 175
328 325 332 329 329 327 324 323 321 319 317 315 314 313 313 313 314 313 316 312 306 306 309 306 304 295 289 271 288 269 256 243 252 244 240 232 228 209 201 194 190 180 169
327 324 328 328 326 322 323 322 319 316 316 315 313 313 312 313 306 306 306 308 309 309 310 308 304 292 286 288 283 261 253 248 241 232 225 218 206 210 202 193 179 171 162
323 323 324 325 323 321 323 320 319 317 316 316 312 312 310 309 310 311 312 312 315 315 313 308 306 299 294 290 239 253 224 218 202 188 175 175 182 183 185 186 170 154 162
322 322 321 320 319 321 320 318 318 319 317 317 314 310 316 318 315 318 320 322 321 321 323 318 306 293 285 214 194 150 175 169 164 165 158 149 144 149 139 148 151 156 163
320 319 318 319 321 321 319 318 320 318 313 318 320 323 320 322 322 323 325 326 328 335 329 342 308 274 240 186 165 153 143 133 136 144 135 123 126 135 144 144 136 136 141
318 318 322 322 321 321 321 321 320 318 320 316 322 323 325 322 330 330 329 335 343 351 16 31 36 106 124 144 153 147 131 123 121 122 128 125 136 136 139 135 128 123 115
323 324 324 324 323 323 323 320 323 321 321 320 322 324 327 331 334 331 339 346 6 45 64 80 97 116 122 135 134 136 129 120 118 120 121 127 129 133 138 137 138 131 130
325 327 327 324 325 322 328 323 323 322 322 323 328 333 334 336 335 339 356 20 40 74 90 88 88 104 111 120 120 128 123 123 124 120 117 125 131 130 130 128 127 125 132
331 332 330 328 327 328 331 330 331 331 330 329 331 336 339 340 350 7 51 72 94 94 94 92 92 102 114 116 119 122 123 123 121 118 118 122 124 124 123 119 117 123 125
332 334 331 331 335 338 344 341 339 337 337 339 344 345 352 360 11 63 95 110 109 104 100 100 96 97 105 108 117 115 116 116 114 117 120 123 121 119 113 112 112 114 116
337 335 336 336 338 347 354 353 351 2 354 356 353 3 15 36 81 69 114 118 116 108 110 113 107 101 103 110 114 116 119 118 118 123 121 117 111 107 108 113 114 112 112
337 337 341 341 345 357 5 2 1 7 3 1 15 29 52 75 91 101 104 114 109 116 121 117 115 119 117 118 124 125 123 124 124 120 114 112 112 113 111 110 111 112 110
338 345 348 347 351 3 10 13 8 9 7 36 32 52 83 88 96 99 87 93 116 126 121 120 123 120 124 126 123 122 120 118 120 118 116 114 113 111 112 110 108 107 106
Wind_Speed_850mb
35 38 42 47 46 45 49 56 60 50 57 62 69 65 57 52 47 45 48 49 49 50 51 54 58 58 56 48 45 42 38 46 41 49 57 60 57 58 62 58 57 61 60
49 54 57 56 56 55 55 57 52 43 43 52 57 61 61 59 58 57 56 54 52 51 52 48 49 51 48 49 45 40 42 45 41 43 46 48 52 56 60 67 63 64 57
51 56 59 59 61 65 58 52 40 46 52 51 59 57 61 60 64 65 68 70 64 53 53 56 54 49 46 48 50 49 41 50 49 42 40 26 28 36 43 62 55 72 58
48 46 46 51 53 45 46 47 45 54 54 55 53 53 59 72 65 66 74 74 67 59 61 64 63 53 49 50 51 48 47 45 50 48 47 57 41 26 22 37 55 56 56
37 39 43 45 46 52 57 52 55 56 59 51 48 55 65 63 67 74 75 73 67 62 69 71 67 61 63 53 48 52 56 51 48 48 49 50 55 61 40 30 43 44 63
39 43 40 42 49 51 54 55 55 55 54 52 52 57 61 64 67 68 76 75 68 65 70 74 70 72 73 57 60 58 62 61 52 48 46 52 46 41 48 37 48 56 57
52 48 42 42 46 49 58 53 53 59 60 63 66 65 65 65 65 68 71 73 70 71 70 73 72 76 82 62 56 60 64 66 63 44 50 49 55 55 54 58 40 45 39
49 53 52 52 53 58 47 50 58 65 67 63 57 58 62 60 66 72 71 67 69 70 75 72 74 79 73 56 54 52 53 53 61 61 47 51 48 49 58 67 55 39 37
74 69 67 62 61 51 50 57 63 65 65 60 63 65 68 72 73 69 66 70 71 70 75 76 82 76 64 53 46 53 59 52 54 65 57 50 57 52 54 67 76 69 42
79 83 82 77 54 51 61 70 69 67 63 61 68 76 78 71 71 68 69 73 70 75 78 74 71 75 69 55 51 58 59 58 54 56 64 61 57 54 58 64 70 69 76
63 83 78 69 64 66 68 71 70 66 66 70 82 85 79 76 75 75 76 71 78 78 76 76 73 84 69 63 62 59 56 51 55 53 55 59 54 54 62 68 71 79 75
67 83 69 76 82 82 80 78 68 73 84 82 86 87 85 82 81 81 79 77 81 82 72 72 87 72 72 67 47 59 57 54 55 55 54 59 51 54 67 68 77 84 76
76 70 72 77 82 82 83 80 81 85 86 87 85 87 84 87 85 83 82 81 86 77 78 84 70 74 64 47 57 53 50 53 52 55 49 53 49 49 54 66 78 80 84
71 70 81 83 82 83 84 82 87 85 87 88 90 87 89 84 85 77 72 70 76 90 95 84 93 61 56 66 58 42 40 48 47 52 38 44 51 67 71 78 86 85 99
76 76 87 86 88 91 82 90 87 88 88 87 87 89 85 83 70 77 90 100 98 100 100 88 63 55 55 54 44 26 36 41 47 39 40 56 68 59 70 77 82 94 103
76 89 90 91 93 86 94 92 90 94 88 88 85 85 80 80 85 81 85 86 89 86 70 64 67 58 56 41 25 26 32 29 36 51 67 76 79 77 76 79 70 67 57
89 93 90 93 93 92 95 94 98 94 87 81 80 81 84 75 75 79 82 77 75 67 70 68 61 56 31 14 10 5 30 44 70 81 75 79 74 74 75 80 80 74 71
92 94 94 91 94 94 96 97 94 84 93 89 79 80 74 74 79 71 71 67 64 56 62 53 25 27 39 27 22 31 39 59 90 86 82 92 82 72 75 76 72 72 71
93 90 86 93 95 93 95 99 87 95 84 81 80 75 71 72 65 63 63 57 44 49 41 43 1 29 57 58 61 74 93 107 110 104 99 82 73 80 79 86 93 85 75
90 91 92 91 92 99 96 90 96 89 80 78 75 66 63 59 59 56 53 55 28 36 42 70 84 87 91 82 96 104 117 111 100 92 94 93 97 98 87 87 85 83 73
93 92 91 95 96 96 107 92 88 81 72 66 62 56 51 50 51 49 51 36 24 44 65 82 90 96 99 107 108 111 109 109 106 103 94 92 89 77 70 67 65 66 63
95 94 99 99 100 101 94 91 74 63 58 53 52 49 42 42 38 44 45 37 48 66 78 88 94 97 97 94 100 107 110 103 105 103 96 84 74 71 68 67 67 65 60
92 96 97 111 109 101 91 77 58 53 50 48 42 37 35 35 40 35 41 52 56 70 78 92 99 101 97 99 100 98 101 102 105 95 88 81 79 76 75 71 67 62 63
93 102 108 105 109 101 74 54 50 42 41 36 34 33 36 39 34 25 39 52 61 63 65 84 96 97 100 100 99 100 100 101 103 93 86 83 83 79 74 69 69 70 69
99 108 103 105 102 82 63 50 44 40 39 35 28 33 34 38 36 33 35 40 44 55 78 91 94 98 97 94 94 96 100 98 94 94 90 87 83 82 80 76 70 67 65
98 110 107 107 96 79 66 56 41 37 33 25 30 34 32 36 41 41 45 42 50 71 79 81 84 87 90 91 88 88 91 90 85 89 90 89 85 82 77 73 70 64 61
Wind_Direction_850mb
25 21 10 3 358 349 347 344 329 323 326 330 333 332 334 334 335 334 331 326 318 314 307 296 290 288 291 288 287 291 280 268 263 262 256 254 250 244 245 243 239 248 240
24 12 3 356 347 341 337 328 323 316 323 328 328 322 327 329 328 332 332 328 324 320 320 319 307 295 290 287 284 285 282 275 271 261 260 258 251 245 246 243 244 240 233
11 360 348 339 337 337 336 334 324 322 328 324 322 315 315 318 324 324 326 332 323 322 320 323 319 302 286 283 283 281 281 283 270 258 247 240 236 237 240 229 240 232 229
355 350 343 339 345 352 344 340 336 330 328 316 310 311 312 309 314 315 317 321 321 322 324 323 322 318 304 288 283 282 278 275 275 269 255 244 247 208 212 227 235 230 221
354 348 341 337 339 342 347 344 341 337 333 329 319 309 318 309 309 307 313 316 318 319 320 323 321 319 319 289 278 274 276 270 272 268 262 255 250 243 240 223 217 195 201
355 346 339 334 338 338 341 340 340 336 332 328 326 323 316 313 314 309 309 311 311 312 314 318 319 318 315 298 281 271 267 269 271 260 261 257 249 234 219 215 201 199 183
347 350 342 339 336 338 334 332 332 330 329 325 318 314 315 312 311 311 313 311 309 310 309 314 313 314 315 302 289 283 272 266 262 262 256 258 252 247 233 227 218 195 195
348 343 337 338 335 335 330 332 331 328 328 326 322 319 317 316 316 312 311 311 310 308 311 309 309 311 311 302 297 288 285 274 261 249 251 257 255 252 238 233 212 179 170
348 351 345 341 338 340 342 337 333 328 325 322 323 322 316 316 316 313 312 311 309 309 307 306 307 310 309 301 293 283 286 281 267 252 245 254 255 259 249 237 216 214 159
347 338 336 339 335 334 333 330 327 324 322 320 319 317 315 315 315 313 310 311 311 310 310 311 309 311 308 299 284 279 274 277 264 260 247 239 250 254 252 235 224 217 193
332 334 335 345 343 340 336 333 327 322 322 321 319 319 318 316 314 312 311 309 312 314 313 310 305 306 302 293 285 285 277 269 255 255 250 245 248 248 233 229 206 203 187
331 328 331 336 338 338 336 329 326 320 319 318 316 316 316 316 314 313 311 309 309 312 309 306 304 302 296 288 279 287 274 258 255 252 256 250 243 239 220 200 198 198 189
335 331 331 333 334 331 329 327 322 320 319 317 316 315 314 314 315 312 311 310 309 307 307 310 306 305 303 275 288 276 261 254 248 255 245 237 238 215 203 205 197 188 175
328 325 332 329 329 327 324 323 321 319 317 315 314 313 313 313 314 313 316 312 306 306 309 306 304 295 289 271 288 269 256 243 252 244 240 232 228 209 201 194 190 180 169
327 324 328 328 326 322 323 322 319 316 316 315 313 313 312 313 306 306 306 308 309 309 310 308 304 292 286 288 283 261 253 248 241 232 225 218 206 210 202 193 179 171 162
323 323 324 325 323 321 323 320 319 317 316 316 312 312 310 309 310 311 312 312 315 315 313 308 306 299 294 290 239 253 224 218 202 188 175 175 182 183 185 186 170 154 162
322 322 321 320 319 321 320 318 318 319 317 317 314 310 316 318 315 318 320 322 321 321 323 318 306 293 285 214 194 150 175 169 164 165 158 149 144 149 139 148 151 156 163
320 319 318 319 321 321 319 318 320 318 313 318 320 323 320 322 322 323 325 326 328 335 329 342 308 274 240 186 165 153 143 133 136 144 135 123 126 135 144 144 136 136 141
318 318 322 322 321 321 321 321 320 318 320 316 322 323 325 322 330 330 329 335 343 351 16 31 36 106 124 144 153 147 131 123 121 122 128 125 136 136 139 135 128 123 115
323 324 324 324 323 323 323 320 323 321 321 320 322 324 327 331 334 331 339 346 6 45 64 80 97 116 122 135 134 136 129 120 118 120 121 127 129 133 138 137 138 131 130
325 327 327 324 325 322 328 323 323 322 322 323 328 333 334 336 335 339 356 20 40 74 90 88 88 104 111 120 120 128 123 123 124 120 117 125 131 130 130 128 127 125 132
331 332 330 328 327 328 331 330 331 331 330 329 331 336 339 340 350 7 51 72 94 94 94 92 92 102 114 116 119 122 123 123 121 118 118 122 124 124 123 119 117 123 125
332 334 331 331 335 338 344 341 339 337 337 339 344 345 352 360 11 63 95 110 109 104 100 100 96 97 105 108 117 115 116 116 114 117 120 123 121 119 113 112 112 114 116
337 335 336 336 338 347 354 353 351 2 354 356 353 3 15 36 81 69 114 118 116 108 110 113 107 101 103 110 114 116 119 118 118 123 121 117 111 107 108 113 114 112 112
337 337 341 341 345 357 5 2 1 7 3 1 15 29 52 75 91 101 104 114 109 116 121 117 115 119 117 118 124 125 123 124 124 120 114 112 112 113 111 110 111 112 110
338 345 348 347 351 3 10 13 8 9 7 36 32 52 83 88 96 99 87 93 116 126 121 120 123 120 124 126 123 122 120 118 120 118 116 114 113 111 112 110 108 107 106